Temp
55 55 53 51 50 46 40 49 41 50 48 56 58 59 58 59 58 57 55 54 53 50 49 49 49 50 51 50 49 49 47 46 45 45 46 46 45 45 45 45 45 45 45 44
48 55 54 49 51 50 48 48 49 50 49 60 59 56 57 57 58 56 56 56 55 54 52 51 52 51 52 50 50 49 46 46 47 47 46 45 44 44 44 44 43 44 43 43
40 50 47 42 49 50 49 51 50 43 52 54 55 56 55 55 57 56 57 56 55 54 54 54 52 54 50 48 49 48 47 47 47 47 46 45 45 44 43 41 42 42 42 42
35 44 33 52 54 54 53 55 54 53 55 55 55 54 54 55 54 55 57 57 55 54 53 52 50 50 49 49 47 47 46 47 47 47 45 45 44 43 42 41 41 41 41 42
34 37 48 54 54 49 47 50 56 53 54 55 55 52 49 55 54 53 56 57 56 53 50 50 50 50 49 47 46 46 46 47 47 47 45 45 43 42 41 41 40 41 42 41
34 31 33 48 50 52 51 41 55 54 52 50 51 44 49 52 53 53 54 56 55 53 52 50 49 49 48 46 47 46 47 47 47 47 45 44 43 42 42 41 42 43 43 41
35 33 44 55 52 52 38 43 54 55 52 48 47 52 53 56 55 53 52 53 53 51 50 49 49 48 46 46 47 49 47 47 47 46 45 44 43 43 42 41 42 40 41 41
33 32 34 52 48 46 51 50 55 54 53 50 51 53 54 55 54 54 51 52 51 50 49 49 49 48 45 46 48 47 47 47 46 45 47 47 42 42 42 41 39 38 39 39
42 43 54 53 52 54 54 53 51 51 51 51 50 50 53 53 54 54 53 51 51 48 48 49 48 49 46 47 47 47 45 44 43 45 45 45 42 40 40 41 39 39 40 38
49 54 56 56 57 57 55 54 55 54 52 52 51 52 52 53 54 54 54 52 50 48 47 46 47 49 48 47 48 46 45 43 42 42 43 43 45 43 40 40 39 41 40 39
49 53 56 59 58 59 58 57 54 55 55 54 53 52 52 52 53 54 54 52 51 48 46 46 46 46 46 47 47 46 45 43 43 43 45 41 43 41 43 42 43 40 40 41
48 58 55 54 55 58 55 54 57 56 55 56 53 52 53 51 52 53 53 52 50 49 47 46 46 46 45 46 47 47 45 44 43 42 40 41 40 40 48 48 49 48 47 43
57 57 58 58 56 56 57 57 59 56 56 54 55 55 54 52 52 53 53 52 50 49 48 46 46 46 46 47 47 46 45 45 44 45 41 39 39 38 37 43 48 48 47 47
57 53 51 54 53 58 58 57 57 56 56 56 56 56 55 52 52 51 50 52 51 49 47 46 46 46 47 47 47 46 45 48 42 41 39 38 39 39 39 38 36 36 44 45
58 59 58 58 56 54 55 54 53 53 54 53 54 53 53 52 52 50 51 51 50 49 47 46 46 46 46 46 46 45 45 44 43 40 39 40 39 38 39 39 38 38 36 42
57 55 52 51 50 52 51 50 48 48 49 49 49 50 51 52 52 53 50 50 46 45 47 46 46 47 46 46 45 44 44 47 45 41 40 40 38 38 37 37 37 37 36 36
47 44 47 46 47 47 47 49 48 47 48 48 48 49 49 50 49 49 51 49 47 47 46 46 47 46 47 46 45 44 43 44 46 41 39 39 39 37 37 36 35 35 36 40
49 47 46 45 45 45 45 47 47 47 46 47 47 47 46 46 46 48 49 51 47 44 44 45 46 46 46 46 45 44 43 42 43 40 40 39 38 38 37 37 36 35 35 38
50 48 47 48 46 46 45 46 46 47 47 46 45 44 45 46 46 47 48 48 48 42 44 44 46 46 45 45 45 43 42 42 41 40 40 41 40 38 38 37 36 35 35 34
47 48 48 47 46 46 45 46 46 45 46 45 44 43 42 44 45 45 45 44 46 48 45 44 45 45 46 45 47 43 42 41 39 39 38 38 38 38 38 38 36 36 36 34
46 47 46 46 45 45 44 45 46 46 47 45 43 42 42 43 43 43 42 41 45 46 45 44 43 43 44 45 45 42 41 41 39 38 38 38 38 37 37 37 37 37 36 35
46 45 45 45 43 43 44 43 43 45 44 43 42 42 41 40 41 41 42 41 43 46 43 40 40 44 42 45 43 41 40 41 40 39 38 38 38 37 37 37 37 37 36 34
45 45 45 44 43 43 43 42 44 42 41 42 40 41 40 40 39 37 35 41 40 42 41 38 41 45 46 43 41 41 40 41 40 39 38 38 38 38 38 37 36 37 35 34
44 44 44 44 43 41 40 41 41 40 40 42 42 41 41 38 38 39 39 41 42 42 40 39 41 45 46 41 40 40 40 40 40 39 39 40 38 37 37 37 36 36 35 35
43 43 42 41 40 39 41 41 40 39 38 38 40 41 42 40 36 38 39 39 41 40 38 41 44 44 40 39 39 40 40 40 40 39 39 38 37 36 37 36 36 36 35 35
41 41 41 41 40 40 40 45 42 40 37 34 37 40 39 39 38 38 38 40 39 39 38 38 36 36 37 38 40 40 40 40 40 39 39 39 37 37 37 36 36 37 35 35
41 43 39 39 41 44 41 39 37 37 38 35 33 35 37 37 36 37 38 35 37 37 38 37 38 38 37 39 40 40 40 40 40 39 39 38 38 38 37 37 36 36 35 35
MSLP
1015.13 1014.93 1015.45 1016.08 1016.34 1017.02 1017.57 1016.67 1016.38 1014.58 1013.77 1012.11 1011.86 1011.82 1011.50 1011.30 1011.54 1012.31 1013.15 1014.00 1015.00 1015.99 1016.65 1017.25 1017.93 1018.43 1018.98 1019.48 1020.08 1020.61 1021.33 1021.82 1022.04 1022.20 1022.48 1022.70 1022.93 1023.02 1023.07 1023.09 1023.11 1023.03 1022.95 1022.88
1015.28 1015.14 1014.98 1015.12 1015.33 1015.46 1015.65 1015.32 1015.20 1014.46 1013.43 1012.22 1011.72 1011.61 1011.56 1011.58 1011.40 1011.75 1012.12 1012.96 1013.83 1014.89 1015.70 1016.29 1016.93 1017.61 1018.20 1018.74 1019.18 1019.64 1020.44 1020.97 1021.26 1021.59 1021.89 1022.20 1022.50 1022.61 1022.70 1022.78 1022.78 1022.65 1022.61 1022.54
1015.70 1015.32 1015.15 1014.64 1013.68 1013.55 1013.66 1013.53 1013.60 1013.79 1012.21 1011.89 1011.73 1011.73 1011.66 1011.55 1011.29 1011.45 1011.79 1012.14 1012.90 1013.71 1014.52 1015.29 1015.87 1016.44 1017.30 1018.00 1018.62 1019.22 1019.74 1020.21 1020.54 1020.89 1021.26 1021.60 1021.92 1022.14 1022.29 1022.47 1022.42 1022.27 1022.25 1022.20
1016.77 1016.23 1015.06 1012.79 1011.99 1012.08 1012.26 1012.22 1012.49 1012.34 1011.97 1012.14 1012.17 1011.91 1011.78 1011.53 1011.35 1011.49 1011.65 1011.59 1012.06 1012.73 1013.60 1014.40 1015.07 1015.84 1016.50 1017.29 1018.12 1018.73 1019.18 1019.54 1019.78 1020.18 1020.64 1020.97 1021.33 1021.60 1021.79 1021.93 1021.97 1021.87 1021.85 1021.79
1017.53 1016.37 1014.30 1012.76 1012.04 1012.19 1012.21 1011.55 1011.04 1011.64 1011.87 1012.04 1012.15 1012.23 1011.96 1011.68 1011.49 1011.73 1011.59 1011.46 1011.35 1011.82 1012.73 1013.66 1014.44 1015.21 1016.15 1016.85 1017.45 1018.04 1018.55 1018.93 1019.19 1019.44 1020.03 1020.41 1020.83 1021.02 1021.13 1021.34 1021.45 1021.40 1021.38 1021.36
1018.01 1016.92 1014.76 1012.06 1011.80 1011.76 1012.00 1011.55 1011.07 1011.44 1011.76 1012.01 1012.24 1012.51 1012.26 1011.97 1011.77 1011.72 1011.72 1011.50 1011.47 1011.77 1012.35 1013.26 1014.07 1014.79 1015.61 1016.36 1016.89 1017.19 1017.57 1018.03 1018.49 1018.85 1019.26 1019.76 1020.07 1020.38 1020.51 1020.70 1020.84 1020.88 1020.90 1020.80
1017.66 1016.28 1013.47 1011.93 1011.89 1012.11 1012.11 1011.39 1010.86 1011.18 1011.57 1011.97 1012.46 1012.42 1012.17 1011.82 1011.76 1011.63 1011.66 1011.60 1011.55 1011.83 1012.52 1012.99 1013.59 1014.39 1015.30 1015.72 1015.97 1016.34 1016.84 1017.24 1017.71 1018.12 1018.59 1018.95 1019.38 1019.72 1020.02 1020.30 1020.42 1020.50 1020.42 1020.23
1017.25 1016.11 1013.46 1011.57 1012.25 1011.98 1010.96 1010.78 1010.73 1010.82 1011.19 1011.63 1012.07 1012.26 1012.13 1011.85 1011.65 1011.65 1011.68 1011.73 1011.77 1012.14 1012.58 1012.77 1013.24 1013.85 1014.71 1014.97 1015.23 1015.77 1016.27 1016.72 1017.05 1017.48 1017.91 1018.36 1018.86 1019.26 1019.51 1019.82 1020.12 1020.13 1020.03 1019.81
1014.20 1012.83 1011.34 1010.98 1010.61 1010.48 1010.52 1010.84 1010.91 1010.90 1010.96 1011.26 1011.69 1012.00 1012.12 1012.07 1011.89 1011.52 1011.49 1011.76 1011.95 1012.16 1012.47 1012.55 1012.87 1013.31 1013.90 1014.10 1014.80 1015.30 1015.86 1016.26 1016.79 1017.11 1017.48 1017.80 1018.37 1018.82 1019.17 1019.34 1019.49 1019.51 1019.49 1019.34
1011.86 1010.85 1010.52 1010.35 1010.11 1010.28 1010.35 1010.50 1010.57 1010.70 1010.87 1011.16 1011.54 1011.62 1011.66 1011.57 1011.54 1011.58 1011.39 1011.43 1011.71 1012.13 1012.34 1012.44 1012.28 1012.47 1012.83 1013.50 1013.98 1014.60 1015.06 1015.64 1016.24 1016.80 1017.21 1017.43 1017.67 1018.00 1018.41 1018.64 1018.79 1018.85 1018.85 1018.85
1010.15 1009.89 1009.81 1009.47 1009.36 1009.36 1009.67 1010.07 1010.33 1010.67 1010.77 1010.85 1011.15 1011.34 1011.49 1011.37 1011.24 1011.07 1010.99 1011.06 1011.30 1011.45 1011.71 1011.92 1012.03 1012.13 1012.30 1012.73 1013.23 1013.90 1014.45 1015.02 1015.56 1016.08 1016.52 1016.89 1017.07 1017.25 1017.52 1017.63 1017.83 1018.05 1018.15 1018.29
1009.01 1008.88 1009.14 1009.32 1009.27 1009.35 1009.82 1010.05 1010.12 1010.18 1010.30 1010.38 1010.72 1010.91 1010.98 1011.04 1010.83 1010.66 1010.53 1010.49 1010.64 1010.80 1010.95 1011.16 1011.35 1011.52 1011.89 1012.16 1012.49 1013.13 1013.78 1014.27 1014.70 1015.16 1015.62 1016.05 1016.44 1016.75 1016.75 1016.93 1017.12 1017.32 1017.52 1017.79
1008.15 1008.58 1008.63 1008.81 1009.07 1009.33 1009.63 1009.65 1009.71 1009.71 1009.99 1010.25 1010.28 1010.26 1010.17 1010.21 1010.03 1009.96 1010.05 1010.01 1009.91 1009.83 1009.95 1010.13 1010.46 1010.76 1011.01 1011.46 1012.00 1012.30 1012.79 1013.36 1013.86 1014.35 1014.84 1015.33 1015.80 1016.16 1016.53 1016.45 1016.58 1016.88 1017.12 1017.33
1008.07 1008.38 1008.49 1008.82 1008.95 1009.10 1009.30 1009.46 1009.62 1009.77 1009.88 1009.89 1009.85 1009.69 1009.56 1009.47 1009.29 1009.28 1009.25 1009.09 1009.10 1009.12 1009.16 1009.30 1009.51 1009.62 1010.01 1010.48 1011.14 1011.71 1012.10 1012.52 1012.95 1013.37 1013.85 1014.46 1014.96 1015.41 1015.77 1016.15 1016.46 1016.68 1016.66 1016.82
1007.86 1008.11 1008.40 1008.63 1008.85 1009.19 1009.38 1009.64 1009.81 1009.89 1010.00 1009.99 1009.77 1009.71 1009.51 1009.36 1008.99 1008.59 1008.27 1008.10 1008.04 1008.28 1008.38 1008.55 1008.64 1008.60 1009.01 1009.65 1010.14 1010.78 1011.38 1011.77 1012.10 1012.57 1013.02 1013.53 1014.15 1014.71 1015.12 1015.43 1015.71 1015.98 1016.37 1016.46
1007.57 1007.87 1008.25 1008.50 1008.86 1009.32 1009.63 1010.03 1010.30 1010.29 1010.37 1010.47 1010.25 1009.94 1009.65 1009.46 1009.02 1008.40 1007.85 1007.47 1007.56 1007.68 1007.67 1007.90 1007.88 1007.85 1008.16 1008.71 1009.46 1010.06 1010.54 1011.01 1011.46 1011.90 1012.53 1013.02 1013.38 1013.92 1014.44 1014.81 1015.14 1015.42 1015.78 1016.08
1007.51 1008.07 1008.41 1008.77 1009.29 1009.74 1010.09 1010.57 1010.84 1010.78 1010.62 1010.55 1010.22 1009.86 1009.58 1009.33 1008.81 1008.28 1007.70 1007.06 1006.72 1006.38 1006.52 1007.10 1006.96 1007.23 1007.51 1007.86 1008.52 1009.11 1009.66 1010.20 1010.68 1011.36 1011.80 1012.28 1012.72 1013.13 1013.63 1014.10 1014.50 1014.77 1014.93 1015.05
1007.50 1007.84 1008.35 1009.06 1009.52 1009.87 1010.49 1010.82 1010.87 1010.93 1010.76 1010.42 1010.13 1009.64 1009.39 1009.33 1008.71 1008.03 1007.48 1006.76 1006.25 1005.74 1005.77 1005.88 1006.45 1006.47 1006.59 1006.83 1007.34 1008.18 1008.84 1009.33 1009.87 1010.43 1011.01 1011.57 1012.05 1012.49 1012.94 1013.34 1013.70 1014.10 1014.41 1014.59
1007.43 1008.09 1008.46 1009.06 1009.49 1009.92 1010.34 1010.85 1010.81 1010.71 1010.48 1010.27 1009.93 1009.40 1009.14 1009.12 1008.91 1008.18 1007.50 1006.68 1005.80 1005.34 1004.73 1005.26 1005.36 1005.72 1005.89 1006.07 1006.33 1006.92 1007.79 1008.48 1009.00 1009.61 1010.15 1010.69 1011.32 1011.78 1012.13 1012.46 1012.90 1013.33 1013.87 1014.38
1007.55 1008.14 1008.46 1009.01 1009.56 1009.84 1010.10 1010.52 1010.63 1010.38 1010.65 1010.25 1009.91 1009.37 1008.87 1008.61 1008.44 1008.05 1007.54 1006.54 1005.54 1004.73 1004.18 1004.04 1004.33 1004.77 1004.96 1005.17 1005.64 1006.03 1006.44 1007.27 1008.08 1008.66 1009.28 1009.86 1010.32 1010.84 1011.32 1011.67 1012.14 1012.66 1013.19 1013.84
1007.49 1008.04 1008.43 1008.87 1009.30 1009.62 1009.86 1010.39 1010.17 1010.13 1010.32 1009.85 1009.91 1009.26 1008.67 1008.31 1007.90 1007.44 1007.11 1006.62 1005.30 1004.23 1004.08 1003.80 1003.80 1004.08 1004.27 1004.54 1004.87 1005.40 1005.62 1006.11 1006.93 1007.67 1008.27 1008.80 1009.44 1009.96 1010.52 1011.00 1011.41 1011.91 1012.49 1013.10
1007.48 1007.97 1008.39 1008.71 1009.07 1009.39 1009.75 1010.05 1009.87 1010.02 1009.90 1009.74 1009.78 1009.34 1008.91 1008.29 1007.71 1007.19 1007.00 1007.01 1005.51 1004.52 1004.06 1003.98 1003.69 1003.43 1003.61 1003.86 1004.35 1004.73 1005.05 1005.29 1005.82 1006.66 1007.39 1007.96 1008.49 1009.01 1009.52 1010.13 1010.72 1011.22 1011.81 1012.46
1007.28 1007.71 1008.29 1008.62 1008.81 1009.01 1009.34 1009.37 1009.46 1009.66 1009.89 1010.08 1009.61 1008.74 1008.85 1008.61 1007.58 1007.13 1006.66 1006.63 1005.74 1004.71 1004.18 1003.95 1003.57 1003.17 1003.08 1003.36 1003.70 1003.99 1004.41 1004.67 1005.03 1005.62 1006.31 1006.95 1007.54 1008.10 1008.67 1009.24 1009.88 1010.53 1011.20 1011.89
1006.99 1007.71 1008.09 1008.24 1008.50 1008.79 1008.98 1009.02 1009.04 1009.21 1009.55 1009.62 1009.28 1008.76 1008.65 1008.14 1007.51 1007.26 1007.05 1006.29 1005.26 1004.71 1004.12 1003.77 1003.39 1003.00 1002.71 1003.02 1003.33 1003.63 1003.92 1004.13 1004.43 1005.00 1005.64 1006.25 1006.90 1007.53 1008.06 1008.60 1009.22 1009.81 1010.52 1011.22
1007.15 1007.59 1007.69 1007.96 1008.38 1008.45 1008.50 1008.71 1008.81 1009.00 1009.11 1009.16 1008.92 1008.75 1008.79 1008.26 1008.14 1007.31 1006.67 1005.81 1005.13 1004.61 1004.10 1003.63 1002.92 1002.65 1002.61 1002.73 1002.98 1003.25 1003.60 1003.70 1004.00 1004.49 1005.01 1005.57 1006.20 1006.87 1007.48 1008.01 1008.59 1009.27 1009.96 1010.59
1007.00 1007.19 1007.56 1007.85 1008.01 1008.19 1008.35 1008.29 1008.36 1008.40 1008.67 1008.87 1009.01 1008.85 1008.24 1007.76 1007.57 1006.82 1006.35 1005.78 1005.18 1004.60 1004.09 1003.62 1002.99 1002.76 1002.69 1002.61 1002.83 1003.01 1003.21 1003.40 1003.61 1004.03 1004.55 1005.11 1005.69 1006.32 1006.94 1007.54 1008.15 1008.77 1009.48 1010.10
1006.91 1007.20 1007.40 1007.72 1007.92 1007.76 1007.87 1007.98 1008.17 1008.40 1008.53 1008.73 1008.65 1008.27 1007.84 1007.56 1007.09 1006.47 1006.15 1005.64 1005.22 1004.52 1004.08 1003.37 1002.88 1002.76 1002.58 1002.50 1002.76 1002.81 1003.02 1003.30 1003.40 1003.69 1004.19 1004.75 1005.34 1005.85 1006.44 1007.08 1007.71 1008.30 1008.99 1009.62
Wind_Speed
8 3 4 5 7 9 11 16 7 13 9 16 11 12 10 8 10 10 11 12 12 10 9 9 9 10 10 9 9 8 8 8 8 7 6 5 5 5 5 5 4 6 5 4
5 8 8 6 10 10 16 17 15 16 22 17 11 6 8 9 8 9 9 13 13 12 10 11 12 11 10 10 10 8 9 8 7 7 7 7 6 6 5 4 5 6 5 4
5 4 2 7 17 16 7 8 9 9 12 4 10 10 7 8 7 6 7 10 12 14 14 12 11 12 11 9 8 8 8 8 8 7 7 7 7 6 6 5 6 6 5 4
4 4 8 11 5 4 10 11 10 9 11 8 8 7 8 8 6 7 8 8 9 10 10 10 8 9 9 9 8 8 8 8 8 8 8 7 7 7 6 5 6 5 5 6
4 6 12 14 7 6 6 6 8 8 5 5 7 6 3 6 7 5 7 6 7 9 8 9 9 9 9 8 8 8 10 9 8 8 8 7 7 7 6 5 4 5 5 5
3 5 7 0 3 2 4 6 6 4 5 4 6 4 3 4 3 5 7 6 3 6 7 9 8 9 9 9 10 12 11 10 7 7 8 8 7 7 5 4 5 4 6 6
6 6 8 4 7 3 4 8 7 5 3 2 2 3 7 7 6 3 2 7 1 2 8 9 9 9 10 9 13 11 8 8 8 8 8 7 7 5 5 5 5 5 6 6
3 4 10 7 4 8 5 2 6 5 5 3 5 7 7 7 6 6 4 4 3 4 5 7 8 9 10 13 9 8 8 9 9 8 7 6 7 6 5 6 6 6 6 6
11 9 2 7 2 6 3 3 2 3 1 1 4 4 6 6 7 5 5 5 5 6 6 7 8 10 11 10 8 8 8 8 7 7 7 6 7 6 4 5 5 5 4 4
3 8 10 9 9 8 7 7 6 4 3 3 6 6 6 6 5 5 5 6 6 7 8 8 8 10 11 8 8 9 10 8 7 7 6 6 6 5 5 5 5 5 4 4
6 7 9 10 6 8 8 4 0 4 4 6 6 7 7 6 7 6 7 5 6 8 8 9 8 8 9 9 9 9 9 8 7 7 9 6 6 6 6 5 6 5 4 3
6 5 5 2 4 5 3 2 5 7 7 6 7 9 7 8 7 7 7 5 7 9 8 8 8 9 8 9 9 11 9 8 8 7 6 6 5 4 12 11 8 7 6 5
13 6 6 5 3 2 5 7 8 5 5 6 7 7 6 7 7 8 8 8 8 10 11 8 9 9 9 10 10 12 11 10 7 9 7 6 6 6 5 6 11 11 12 12
4 2 5 5 6 5 5 6 6 6 6 6 7 7 8 8 7 8 9 10 8 8 9 9 10 12 11 11 12 11 10 15 8 7 6 6 6 6 5 5 6 4 11 10
18 14 10 8 5 5 5 6 7 7 7 8 7 8 8 9 9 10 9 8 8 8 9 9 10 12 10 12 14 13 10 9 8 7 7 8 6 5 5 5 5 4 2 8
15 9 4 3 2 5 4 6 6 7 7 7 8 10 10 12 13 12 9 8 7 9 10 10 12 10 11 13 13 11 11 16 11 7 8 7 7 7 5 5 5 5 5 6
6 4 5 4 4 5 5 5 5 6 7 8 9 10 11 13 13 13 14 9 9 10 8 10 13 8 11 13 14 10 9 9 14 8 8 8 8 8 7 6 5 5 5 6
5 2 3 2 1 0 3 4 5 7 7 7 8 9 10 12 13 15 15 14 10 8 8 8 7 9 12 14 14 10 9 9 10 10 8 9 8 8 7 7 6 6 4 5
6 6 5 4 3 1 2 5 5 7 7 7 7 8 9 12 15 14 15 15 14 9 8 8 12 13 12 15 15 10 10 10 10 9 9 13 10 8 8 8 7 6 6 6
8 6 5 5 2 3 2 4 6 5 7 7 8 8 9 11 12 15 15 16 13 11 8 9 12 12 13 14 21 11 12 12 11 10 9 9 9 9 8 10 8 7 7 8
8 7 6 5 5 2 2 4 3 5 9 9 9 10 10 11 12 12 14 12 10 8 7 8 8 8 8 11 15 11 11 12 12 12 11 11 10 9 8 8 8 8 7 7
7 6 5 4 4 4 4 2 4 4 7 9 10 9 10 11 10 10 11 13 9 12 5 5 5 10 8 15 10 11 11 12 11 10 10 10 10 10 10 9 9 8 8 7
6 6 6 5 5 5 3 4 4 2 6 8 9 10 8 8 7 8 10 9 7 10 8 5 9 13 15 10 9 11 11 12 11 11 11 10 10 10 9 9 9 9 8 8
6 4 3 3 2 3 5 6 4 3 5 6 7 8 9 8 8 5 7 15 17 13 9 9 11 15 15 7 8 9 9 10 10 9 9 14 9 8 8 9 9 9 8 10
4 3 2 2 4 4 4 3 2 3 5 5 8 8 8 5 5 9 8 9 14 13 9 14 15 14 6 5 6 7 8 8 8 8 9 10 9 9 8 8 9 9 8 8
4 2 2 2 2 3 4 4 3 3 3 3 6 6 5 6 7 7 7 11 9 12 8 5 3 3 3 4 5 6 7 7 8 8 9 9 9 9 9 9 9 9 8 8
3 4 0 2 3 3 1 1 3 4 4 4 6 5 5 6 8 9 11 5 7 8 6 5 5 7 2 3 4 5 5 5 8 7 8 8 8 8 9 9 9 8 8 8
Wind_Direction
265 295 178 222 224 191 201 228 218 258 255 279 295 306 289 265 213 193 182 180 188 192 190 187 185 187 186 184 181 179 186 196 208 209 211 214 219 236 243 247 256 271 274 279
272 263 255 239 243 226 217 242 258 266 280 277 278 317 309 290 310 214 188 187 188 189 188 194 191 190 189 186 186 172 182 196 197 202 203 201 212 231 238 245 256 261 261 263
254 269 329 261 236 228 211 210 204 221 239 320 321 315 307 295 300 281 222 186 187 191 195 197 194 184 188 182 173 181 185 191 197 195 198 201 205 220 230 232 244 258 267 263
252 320 249 245 186 221 210 245 220 254 271 291 283 306 305 309 279 297 308 212 189 186 190 191 183 180 169 169 176 185 192 195 193 193 194 199 203 212 225 223 233 241 256 260
191 209 281 293 252 193 180 295 207 228 267 302 307 311 251 8 25 327 304 314 207 181 172 171 177 171 168 172 176 182 197 204 200 188 190 194 205 208 215 217 232 243 247 257
176 197 232 340 152 143 129 259 145 168 232 286 332 8 280 355 338 318 329 314 285 167 155 162 179 164 169 184 187 200 196 197 197 192 191 197 199 206 209 207 220 236 255 250
228 244 262 248 152 165 179 238 175 186 211 225 237 220 288 320 321 322 305 304 343 159 172 177 168 163 186 188 205 200 187 183 192 194 192 192 195 193 196 215 228 241 250 256
192 241 269 139 83 187 193 144 173 195 192 240 264 293 298 303 306 309 272 280 225 209 202 184 173 169 189 206 195 185 183 192 189 190 190 189 190 203 200 207 225 241 248 261
183 208 248 201 255 195 126 142 223 184 229 276 278 267 300 307 314 293 261 235 225 207 220 206 184 184 199 205 185 181 184 191 188 184 188 186 185 195 202 209 212 230 236 249
191 223 245 207 231 234 183 206 226 238 249 268 258 263 271 272 283 286 264 228 211 207 225 223 206 194 200 183 184 180 189 184 179 184 195 193 196 189 190 202 214 220 227 237
245 265 303 294 260 221 197 142 111 272 257 270 230 264 254 275 274 269 263 236 207 207 216 227 213 207 190 186 179 190 184 181 185 189 203 196 202 190 197 205 195 208 223 209
232 190 199 260 101 89 114 253 246 250 268 247 205 242 253 261 258 261 266 246 222 223 218 218 210 205 193 188 185 184 190 187 192 189 188 189 186 213 212 199 196 208 220 208
254 260 271 279 273 249 275 271 270 256 257 252 264 257 253 249 247 247 260 257 233 225 224 206 206 206 190 189 196 189 194 192 191 191 184 182 186 188 198 233 223 226 234 237
288 249 268 265 267 281 287 345 349 323 304 285 280 278 259 245 247 244 244 248 242 236 222 208 206 211 191 183 193 200 193 197 189 185 177 175 182 186 183 185 198 217 232 222
264 262 262 269 292 357 338 319 312 310 315 317 317 306 300 293 282 247 242 243 236 230 231 209 211 216 181 186 192 194 195 202 189 177 179 178 175 178 186 190 190 189 161 202
241 257 275 250 243 272 347 353 328 313 311 303 306 307 303 298 295 294 265 246 215 239 238 217 223 211 183 184 191 195 202 205 191 179 178 184 177 180 183 189 189 194 178 191
155 210 224 235 54 21 343 327 311 301 299 301 301 306 309 303 299 294 291 269 231 236 222 215 230 188 190 187 190 195 196 197 192 186 181 184 183 184 184 181 188 194 199 183
180 161 60 92 149 337 298 298 299 294 288 292 301 308 306 301 293 295 294 297 273 245 220 210 211 196 194 191 189 190 192 190 192 187 185 182 186 186 188 188 186 184 181 167
160 165 176 180 170 189 266 275 282 288 300 305 307 307 306 300 299 297 296 292 288 261 247 202 211 201 202 202 186 182 189 189 189 189 185 184 188 189 189 185 183 179 164 163
143 160 166 179 201 237 270 279 306 314 299 298 300 299 301 301 304 303 300 289 283 278 232 198 205 210 211 202 193 191 186 187 187 187 183 187 186 188 190 181 176 177 170 167
160 171 172 186 203 187 246 268 312 304 308 318 309 305 306 305 309 309 306 297 297 289 262 219 199 209 211 202 196 196 190 185 185 185 186 187 185 186 182 180 179 178 174 166
161 163 178 194 205 224 236 236 284 308 320 316 306 305 307 305 307 308 299 287 305 321 303 267 226 213 205 201 196 200 197 193 184 181 184 185 186 183 183 180 180 174 170 167
152 166 190 205 225 230 227 239 250 265 288 294 304 312 309 298 306 312 310 300 318 315 312 277 254 235 218 202 199 200 199 196 187 184 183 184 184 184 180 175 175 173 169 167
154 179 196 207 243 258 261 263 199 219 267 288 298 307 309 311 308 290 286 301 311 313 300 288 273 260 234 206 203 202 201 198 190 184 179 180 179 174 173 173 170 171 167 170
158 191 215 260 255 249 266 275 237 258 259 289 301 301 293 292 274 299 302 307 317 321 305 296 286 271 248 206 201 202 201 198 189 180 179 176 173 171 173 169 171 168 169 171
173 177 226 266 262 266 252 267 269 278 260 267 277 276 287 305 290 296 304 317 315 319 305 294 312 296 246 196 207 201 198 195 189 181 177 175 171 170 171 169 170 172 169 169
179 202 229 273 252 254 329 320 289 272 251 232 254 274 293 306 311 320 315 302 308 315 319 317 324 305 243 203 215 194 195 196 188 175 172 171 170 173 171 169 169 167 164 170